Tracking 32964 objects as of 20-Jan-2026
HD Live streaming from Space Station
objects crossing your sky now

ONEWEB-0536

Track ONEWEB-0536 now!
10-day predictions
ONEWEB-0536 is classified as:


NORAD ID: 54148
Int'l Code: 2022-138AM
Perigee: 1,187.4 km
Apogee: 1,190.4 km
Inclination: 87.9 °
Period: 109.0 minutes
Semi major axis: 7559 km
RCS: Unknown
Launch date: October 22, 2022
Source: United Kingdom (UK)
Launch site: SRIHARIKOTA (SRI)
Your satellite tracking list
Your tracking list is empty




NASA's NSSDC Master Catalog

Two Line Element Set (TLE):
1 54148U 22138AM  26020.26685372  .00000144  00000-0  32214-3 0  9991
2 54148  87.9223 303.9872 0002006 107.5915 252.5438 13.20774003159778
Source of the keplerian elements: AFSPC